Regional Weather Roundup
Issued by NWS Columbia, SC

Home | Current Version | Previous Version | Text Only | Print | Product List | Glossary On
Versions: 1 2 3 4 5 6 7 8 9 10 11 12 13 14 15 16 17 18 19 20 21 22 23 24 25 26 27 28 29 30 31 32 33 34 35 36 37 38 39 40 41 42 43 44 45 46 47 48 49 50
000
ASUS42 KCAE 250510
RWRCAE
REGIONAL WEATHER ROUNDUP
NATIONAL WEATHER SERVICE COLUMBIA SC
100 AM EDT FRI JUL 25 2014

NOTE: "FAIR" INDICATES FEW OR NO CLOUDS BELOW 12,000 FEET WITH NO
SIGNIFICANT WEATHER AND/OR OBSTRUCTIONS TO VISIBILITY.

NOT ALL STATIONS ARE QUALITY CONTROLLED BY THE NATIONAL
WEATHER SERVICE. USE DATA WITH CAUTION...ESPECIALLY
DEWPOINT OBSERVATIONS.

SCZ001>056-GAZ040-063>065-077-250600-
...UPSTATE SOUTH CAROLINA...

CITY           SKY/WX    TMP DP  RH WIND       PRES   REMARKS
ANDERSON       MOCLDY    75  71  87 CALM      29.98R
LIBERTY        CLOUDY    73  32  21 E3        29.99R
SPARTANBURG    FAIR      75  72  88 CALM      29.98R
CLEMSON        MOCLDY    76  71  85 CALM      29.99R
GREENVILLE     MOCLDY    77  67  71 E5        30.01R
GREENWOOD      CLOUDY    75  70  84 CALM      29.99R
GREER          MOCLDY    74  68  81 N5        29.98R
ROCK HILL      MOCLDY    73  69  87 NE3       29.99R
CHESTER        CLOUDY    77  72  83 NE7       29.98R
LAURENS        MOCLDY    77  77 100 CALM      29.98S


...CENTRAL SOUTH CAROLINA...

CITY           SKY/WX    TMP DP  RH WIND       PRES   REMARKS
COLUMBIA APT   MOCLDY    80  71  74 W5        29.94R
COLUMBIA OWENS MOCLDY    81  70  69 W5        29.96R
DARLINGTON     CLOUDY    75  72  88 NW3       29.97R
FLORENCE       PTCLDY    75  73  93 NW3       29.94R
MCENTIRE ANGB  PTCLDY    75  72  92 E1        29.95R
ORANGEBURG     CLEAR     78  72  81 CALM      29.95R
SUMTER SHAW    PTCLDY    77  73  87 W2        29.93R
NEWBERRY       FAIR      73  73 100 SW5       29.99S
AIKEN          FAIR      75  75 100 CALM      30.00R
BARNWELL       FAIR      79  72  78 CALM      29.96R
MANNING        FAIR      79 N/A N/A CALM      29.94S
CAMDEN         FAIR      73  72  94 NE5       29.97R
LANCASTER      LGT RAIN  72  72 100 NE6       29.97R
WINNSBORO      FAIR      77  72  83 W5        29.96R


...EASTERN AND COASTAL SOUTH CAROLINA...

CITY           SKY/WX    TMP DP  RH WIND       PRES   REMARKS
MYRTLE BEACH   CLOUDY    75  70  83 W3        29.94F
N MYRTLE BCH   LGT RAIN  74  69  85 W6        29.93S
CONWAY         MOCLDY    73  73 100 SW7       29.95R
MARION         FAIR      72  72 100 CALM      29.95R
HARTSVILLE     MOCLDY    75  72  88 CALM      29.98R
FLORENCE       PTCLDY    75  73  93 NW3       29.94R
DARLINGTON     CLOUDY    75  72  88 NW3       29.97R
CHARLESTON APT PTCLDY    83  78  85 SW7       29.95S
MOUNT PLEASANT FAIR      82  79  89 SW6       29.95S
WALTERBORO     CLEAR     79  77  94 S3        29.96S
BEAUFORT       MOCLDY    83  77  82 W10       29.96S


...EASTERN GEORGIA...

CITY           SKY/WX    TMP DP  RH WIND       PRES   REMARKS
AUGUSTA BUSH F MOCLDY    76  72  87 CALM      29.95R
AUGUSTA DANIEL PTCLDY    80  72  76 CALM      29.97R
THOMSON        PTCLDY    75  75 100 CALM      30.01R
WASHINGTON     FAIR      77  77 100 SW5       29.98R
CLAXTON        FAIR      79  77  94 CALM      29.98S
SYLVANIA       PTCLDY    80  75  84 SW3       29.98S
STATESBORO     PTCLDY    79  73  79 SW3       29.97S
SAVANNAH       CLEAR     80  71  74 W3        29.97F


...SOUTHERN NORTH CAROLINA...

CITY           SKY/WX    TMP DP  RH WIND       PRES   REMARKS
CHARLOTTE      MOCLDY    72  67  84 NE6       29.99R
MONROE         PTCLDY    71  67  87 NE8       29.97R
WADESBORO      PTCLDY    73  67  83 N5        29.96S
ROCKINGHAM     RAIN      73  68  83 NE5       29.96R
RUTHERFORDTON  MOCLDY    72  67  84 CALM      30.01R
ASHEVILLE      CLEAR     68  65  90 N5        30.07R

$$


USA.gov is the U.S. government's official web portal to all federal, state and local government web resources and services.